User: anonymous   Login
Location: Iesi
(43.5167°N, 13.2333°E)
Time: 05:05:32
(UTC+00:00)
Language:

Cosmos 1862 Rocket - Orbit

View from above orbital plane
View from above orbital plane
View from above satellite
View from above satellite

Ground track
Ground track

The orbit data is extracted from the following two-line orbital elements,

1 18153U 87055B   20304.31004650  .00000090  00000-0  80012-5 0  9996
2 18153  82.5039  28.5483 0021282 351.7318   8.3543 14.83300046800853
Epoch (UTC): 30 October 2020 07:26:28
Eccentricity: 0.0021282
inclination: 82.5039°
perigee height: 604 km
apogee height: 634 km
right ascension of ascending node: 28.5483°
argument of perigee: 351.7318°
revolutions per day: 14.83300046
mean anomaly at epoch: 8.3543°
orbit number at epoch: 80085

The dashed part of the orbit path shows where the satellite is in the earth's shadow,  

DLR